Lapeer, MI

4:26 AM EDT on August 22, 2017 (GMT -0400)
Lapeer

Weather History for KD95 - November, 2012

Change the Weather History Date:

Saturday, November 17, 2012

  Actual Average (KFNT) Record (KFNT)
Temperature  
Mean Temperature 40 °F -  
Max Temperature 53 °F 46 °F 70 °F (1953)
Min Temperature 26 °F 32 °F 9 °F (1959)
Degree Days  
Heating Degree Days 26    
Moisture  
Dew Point 32 °F    
Average Humidity 85    
Maximum Humidity 100    
Minimum Humidity 43    
Precipitation  
Precipitation 0.00 in - - ()
Sea Level Pressure  
Sea Level Pressure 30.55 in    
Wind  
Wind Speed 1 mph ()    
Max Wind Speed 9 mph    
Max Gust Speed -    
Visibility 5.2 miles    
Events Fog    
Averages and records for this station are not official NWS values.
T = Trace of Precipitation, MM = Missing Value Source: Averaged Metar Reports

Daily Weather History Graph

Daily Weather History Graph

Search for Another Location

Airport or City:

Trip Planner

Search our weather history database for the weather conditions in past years. The results will help you decide how hot, cold, wet, or windy it might be!

Date:

Astronomy

Nov. 17, 2012 Rise Set
Actual Time 7:28 AM EST 5:07 PM EST
Civil Twilight 6:57 AM EST 5:37 PM EST
Nautical Twilight 6:23 AM EST 6:12 PM EST
Astronomical Twilight 5:49 AM EST 6:46 PM EST
Moon 11:12 AM EST (11/17) 9:16 PM EST (11/17)
Length of Visible Light 10h 39m
Length of Day
9h 38m
Waxing Crescent, 20% of the Moon is Illuminated
Nov 17
Waxing Crescent
Nov 20
First Quarter
Nov 28
Full
Dec 6
Last Quarter
Dec 13
New

Hourly Weather History & Observations

Time (EST) Temp. Windchill Dew Point Humidity Pressure Visibility Wind Dir Wind Speed Gust Speed Precip Events Conditions
12:13 AM 36.5 °F - 36.5 °F 100% 30.51 in 0.2 mi Calm Calm - N/A Fog Fog
12:33 AM 35.8 °F - 35.8 °F 100% 30.51 in 0.2 mi Calm Calm - N/A Fog Fog
12:53 AM 35.2 °F - 35.2 °F 100% 30.51 in 0.2 mi Calm Calm - N/A Fog Fog
1:13 AM 34.2 °F - 34.2 °F 100% 30.51 in 0.2 mi Calm Calm - N/A Fog Fog
1:33 AM 32.9 °F - 32.9 °F 100% 30.51 in 0.2 mi Calm Calm - N/A Fog Fog
1:53 AM 32.0 °F - 32.0 °F 100% 30.51 in 0.2 mi Calm Calm - N/A Fog Fog
2:13 AM 31.1 °F - 31.1 °F 100% 30.52 in 0.2 mi Calm Calm - N/A Fog Light Freezing Fog
2:33 AM 30.9 °F - 30.9 °F 100% 30.52 in 0.2 mi Calm Calm - N/A Fog Light Freezing Fog
2:53 AM 30.2 °F - 30.2 °F 100% 30.52 in 0.5 mi Calm Calm - N/A Fog Light Freezing Fog
3:14 AM 29.7 °F - 29.7 °F 100% 30.52 in 0.2 mi Calm Calm - N/A Fog Light Freezing Fog
3:33 AM 29.5 °F - 29.5 °F 100% 30.52 in 0.8 mi Calm Calm - N/A   Overcast
3:53 AM 29.1 °F - 29.1 °F 100% 30.53 in 2.0 mi Calm Calm - N/A   Clear
4:14 AM 29.3 °F - 29.3 °F 100% 30.53 in 3.0 mi Calm Calm - N/A   Clear
4:33 AM 29.3 °F - 29.3 °F 100% 30.53 in 3.0 mi Calm Calm - N/A   Scattered Clouds
4:53 AM 28.6 °F - 28.6 °F 100% 30.55 in 4.0 mi Calm Calm - N/A   Mostly Cloudy
5:13 AM 28.4 °F - 28.4 °F 100% 30.55 in 4.0 mi Calm Calm - N/A   Mostly Cloudy
5:33 AM 28.4 °F - 28.4 °F 100% 30.55 in 4.0 mi Calm Calm - N/A   Scattered Clouds
5:53 AM 27.1 °F - 27.1 °F 100% 30.55 in 4.0 mi Calm Calm - N/A   Scattered Clouds
6:13 AM 27.9 °F - 27.9 °F 100% 30.55 in 5.0 mi Calm Calm - N/A   Scattered Clouds
6:33 AM 27.7 °F - 27.7 °F 100% 30.56 in 4.0 mi Calm Calm - N/A   Overcast
6:53 AM 27.9 °F - 27.9 °F 100% 30.56 in 0.2 mi Calm Calm - N/A Fog Light Freezing Fog
7:13 AM 26.8 °F - 26.8 °F 100% 30.57 in 0.2 mi Calm Calm - N/A Fog Light Freezing Fog
7:33 AM 26.4 °F - 26.4 °F 100% 30.57 in 0.2 mi Calm Calm - N/A Fog Light Freezing Fog
7:53 AM 26.6 °F - 26.6 °F 100% 30.57 in 0.2 mi Calm Calm - N/A Fog Light Freezing Fog
8:13 AM 27.1 °F - 27.1 °F 100% 30.58 in 0.8 mi Calm Calm - N/A   Mostly Cloudy
8:33 AM 28.0 °F - 28.0 °F 100% 30.58 in 1.8 mi Calm Calm - N/A   Mist
8:53 AM 29.7 °F - 29.7 °F 100% 30.58 in 2.0 mi Calm Calm - N/A   Clear
9:13 AM 31.1 °F - 31.1 °F 100% 30.59 in 2.0 mi Calm Calm - N/A   Clear
9:33 AM 32.0 °F - 32.0 °F 100% 30.59 in 2.0 mi Calm Calm - N/A   Clear
9:53 AM 33.3 °F - 33.3 °F 100% 30.60 in 2.5 mi Calm Calm - N/A   Clear
10:13 AM 36.7 °F - 36.7 °F 100% 30.60 in 3.0 mi Calm Calm - N/A   Clear
10:33 AM 39.4 °F - 39.4 °F 100% 30.60 in 5.0 mi Calm Calm - N/A   Clear
10:53 AM 41.9 °F - 41.2 °F 97% 30.60 in 7.0 mi Calm Calm - N/A   Clear
11:13 AM 44.1 °F - 41.2 °F 90% 30.60 in 10.0 mi Calm Calm - N/A   Clear
11:33 AM 48.0 °F - 35.4 °F 62% 30.59 in 10.0 mi SSW 3.5 mph - N/A   Clear
11:53 AM 49.8 °F - 35.2 °F 57% 30.59 in 10.0 mi SW 4.6 mph - N/A   Clear
12:13 PM 50.2 °F - 35.8 °F 58% 30.57 in 10.0 mi South 3.5 mph - N/A   Clear
12:33 PM 50.9 °F - 35.6 °F 56% 30.57 in 10.0 mi South 4.6 mph - N/A   Clear
12:53 PM 51.4 °F - 34.5 °F 52% 30.56 in 10.0 mi South 4.6 mph - N/A   Clear
1:13 PM 52.2 °F - 34.9 °F 52% 30.56 in 10.0 mi Calm Calm - N/A   Clear
1:33 PM 52.5 °F - 33.4 °F 48% 30.56 in 10.0 mi SSW 4.6 mph - N/A   Clear
1:53 PM 53.1 °F - 32.5 °F 46% 30.55 in 10.0 mi SSW 4.6 mph - N/A   Clear
2:13 PM 52.5 °F - 32.7 °F 47% 30.55 in 10.0 mi SSW 9.2 mph - N/A   Clear
2:33 PM 52.7 °F - 30.6 °F 43% 30.55 in 10.0 mi Calm Calm - N/A   Clear
2:54 PM 52.5 °F - 31.1 °F 44% 30.55 in 10.0 mi SSW 4.6 mph - N/A   Clear
3:13 PM 52.0 °F - 32.0 °F 47% 30.55 in 10.0 mi South 4.6 mph - N/A   Clear
3:33 PM 52.2 °F - 30.6 °F 44% 30.55 in 10.0 mi South 5.8 mph - N/A   Clear
3:53 PM 51.4 °F - 31.5 °F 46% 30.55 in 10.0 mi South 4.6 mph - N/A   Clear
4:13 PM 48.9 °F - 32.4 °F 53% 30.55 in 10.0 mi South 3.5 mph - N/A   Clear
4:33 PM 48.0 °F - 31.6 °F 53% 30.55 in 10.0 mi SSE 4.6 mph - N/A   Clear
4:53 PM 48.2 °F - 30.7 °F 51% 30.55 in 10.0 mi SSE 3.5 mph - N/A   Clear
5:13 PM 45.3 °F - 30.6 °F 56% 30.55 in 10.0 mi Calm Calm - N/A   Clear
5:33 PM 42.3 °F - 30.7 °F 64% 30.55 in 10.0 mi Calm Calm - N/A   Clear
5:53 PM 42.8 °F 41.1 °F 31.3 °F 64% 30.55 in 10.0 mi SE 3.5 mph - N/A   Clear
6:13 PM 41.7 °F - 32.2 °F 69% 30.55 in 10.0 mi Calm Calm - N/A   Clear
6:33 PM 41.0 °F - 32.9 °F 73% 30.55 in 7.0 mi Calm Calm - N/A   Clear
6:53 PM 40.1 °F - 33.6 °F 78% 30.55 in 5.0 mi Calm Calm - N/A   Haze
7:13 PM 36.0 °F - 32.5 °F 87% 30.55 in 7.0 mi Calm Calm - N/A   Clear
7:33 PM 36.0 °F - 32.2 °F 86% 30.55 in 7.0 mi Calm Calm - N/A   Clear
7:53 PM 34.9 °F 32.0 °F 34.9 °F 100% 30.55 in 7.0 mi ESE 3.5 mph - N/A   Clear
8:13 PM 32.4 °F 29.1 °F 31.1 °F 95% 30.55 in 7.0 mi ESE 3.5 mph - N/A   Clear
8:33 PM 33.3 °F - 33.3 °F 100% 30.55 in 7.0 mi Calm Calm - N/A   Clear
8:53 PM 36.1 °F 33.5 °F 36.0 °F 99% 30.55 in 7.0 mi ESE 3.5 mph - N/A   Clear
9:13 PM 32.4 °F - 32.4 °F 100% 30.56 in 7.0 mi Calm Calm - N/A   Clear
9:33 PM 33.8 °F - 33.8 °F 100% 30.56 in 5.0 mi Calm Calm - N/A   Clear
9:53 PM 31.6 °F - 31.6 °F 100% 30.55 in 5.0 mi Calm Calm - N/A   Clear
10:13 PM 32.2 °F - 32.2 °F 100% 30.55 in 5.0 mi Calm Calm - N/A   Clear
10:33 PM 31.6 °F - 31.6 °F 100% 30.55 in 4.0 mi Calm Calm - N/A   Clear
10:53 PM 32.0 °F - 32.0 °F 100% 30.55 in 4.0 mi Calm Calm - N/A   Clear
11:13 PM 30.7 °F 27.3 °F 30.7 °F 100% 30.55 in 3.0 mi ESE 3.5 mph - N/A   Clear
11:33 PM 29.3 °F - 29.3 °F 100% 30.55 in 2.0 mi Calm Calm - N/A   Clear
11:53 PM 33.3 °F 30.2 °F 33.3 °F 100% 30.55 in 2.5 mi SE 3.5 mph - N/A   Clear